Wind_Speed
12 12 12 13 13 13 13 14 14 15 14 14 13 12 11 11 10 9 9 9 9 9 9 8 8 8 8 9 9 9 10 10 10 10 11 11 12 12 12 12 12 12
14 13 14 14 14 14 14 14 14 14 14 14 13 12 11 10 10 10 9 9 9 9 9 9 8 8 8 9 9 9 9 9 10 10 11 11 12 12 11 12 12 12
15 15 15 15 14 14 14 14 14 14 14 13 13 12 11 10 10 10 10 10 10 9 9 9 9 8 8 8 8 8 8 8 9 9 10 10 10 10 10 11 12 12
15 15 15 15 15 15 15 14 14 14 14 13 13 12 11 11 11 10 10 10 10 10 9 9 9 9 9 9 8 8 8 9 9 9 9 9 9 9 9 9 10 10
15 15 15 15 15 15 15 14 15 15 14 14 14 13 12 12 12 11 11 11 11 10 10 10 10 10 10 10 10 9 9 9 9 9 9 9 9 8 8 8 8 9
14 14 15 15 15 15 14 14 15 15 15 15 15 14 14 13 13 12 12 12 12 12 11 11 11 11 11 11 11 11 11 10 10 10 10 10 9 9 9 9 9 9
14 14 14 15 15 15 14 14 15 15 15 15 15 15 14 14 14 13 13 13 13 13 13 12 12 12 12 12 12 13 12 12 11 11 11 11 11 11 11 10 10 10
14 14 15 15 15 15 15 15 15 15 16 16 16 15 15 15 15 14 14 14 14 14 14 14 14 14 13 13 13 13 13 13 12 12 12 12 12 12 12 12 11 12
15 15 15 15 15 14 14 15 15 15 16 16 16 16 15 15 15 15 15 15 15 14 14 14 14 14 14 13 13 14 14 14 13 13 13 14 14 14 13 13 12 13
16 16 16 15 14 14 14 14 15 15 15 16 16 16 15 15 16 16 16 16 15 14 14 14 14 14 14 14 14 14 14 14 14 14 15 15 15 15 14 14 14 13
16 16 16 15 15 14 14 15 15 15 15 15 16 16 16 16 16 16 16 16 15 15 14 14 14 15 15 14 14 15 15 15 15 15 15 15 15 15 15 15 14 14
17 17 16 15 15 15 15 15 15 15 15 15 15 16 16 16 16 16 16 15 15 15 15 15 15 15 15 15 15 15 15 15 15 15 15 15 15 15 15 15 15 15
17 17 16 16 16 16 16 16 16 16 16 16 16 16 16 16 16 16 16 16 15 15 15 15 15 15 15 15 15 15 15 15 15 15 15 15 16 15 15 15 15 15
18 18 17 17 17 17 17 17 17 17 17 16 17 17 16 16 16 16 16 16 16 16 15 16 15 15 15 15 15 15 15 15 16 16 16 15 16 16 16 16 16 16
18 18 19 18 18 17 17 17 17 17 17 17 17 17 17 17 17 17 17 17 16 16 16 16 16 15 15 15 16 16 16 16 16 16 16 16 16 16 16 17 17 17
18 19 19 20 20 19 19 18 18 19 18 18 18 18 18 18 18 18 18 17 17 17 17 16 16 16 15 16 16 17 17 17 18 18 17 17 17 17 17 18 18 19
19 19 20 20 21 21 21 21 21 21 21 20 20 19 19 19 19 19 18 18 18 18 18 18 17 17 17 18 18 19 19 19 19 19 19 19 19 18 19 19 20 20
21 21 20 20 21 21 22 22 22 23 23 23 22 21 21 20 20 20 19 19 19 20 19 19 19 19 19 19 20 20 20 21 21 21 21 21 21 20 21 20 21 22
22 22 22 22 22 22 22 23 23 24 24 24 24 23 23 22 22 22 21 21 21 21 21 21 21 21 21 21 21 22 22 23 23 23 24 24 23 24 24 22 20 22
24 24 23 23 24 24 24 24 23 23 23 24 24 24 24 24 23 23 23 22 22 22 22 23 22 22 22 22 23 23 24 24 24 24 24 25 25 26 26 24 23 23
26 27 27 26 25 25 25 25 25 24 24 23 23 24 24 24 24 24 24 24 23 23 23 23 23 22 23 23 24 24 25 26 26 25 25 25 26 27 27 27 26 25
27 28 28 28 28 26 24 25 27 27 26 25 24 23 24 24 25 25 25 25 24 24 24 24 23 23 23 24 24 25 26 27 28 28 28 28 28 28 28 29 29 28
29 28 27 29 30 28 24 23 26 28 29 28 26 24 24 24 25 26 26 26 26 25 24 25 24 24 25 25 25 26 26 28 29 30 30 30 30 30 30 30 30 30
33 31 28 28 29 29 25 23 23 26 28 28 27 26 25 25 26 27 27 27 27 27 26 26 26 26 26 26 27 27 27 29 30 30 31 31 31 31 31 31 31 30
37 32 28 28 29 28 26 24 23 25 26 28 29 29 27 26 27 28 27 27 27 27 27 28 28 28 28 28 29 29 30 30 31 31 32 32 32 32 32 32 32 32
35 32 30 30 29 26 25 26 26 26 27 29 30 30 29 27 26 26 27 28 27 27 27 28 29 30 30 30 30 31 32 32 33 33 33 33 33 34 34 34 34 34
Wind_Direction
181 179 180 179 179 184 188 189 189 189 190 191 190 191 194 195 195 195 194 194 196 199 201 203 208 215 221 225 228 231 234 235 235 239 246 251 254 254 254 255 258 259
183 184 187 187 186 186 188 190 190 190 191 192 193 193 194 194 192 193 194 194 198 203 204 206 210 216 221 225 228 232 236 238 239 244 250 254 257 259 258 258 259 262
185 187 189 191 191 190 190 191 192 193 194 196 196 195 194 192 190 192 194 196 202 206 208 211 216 220 221 222 224 229 234 236 239 243 249 253 257 261 262 263 264 267
190 190 191 192 193 194 193 194 195 197 198 200 202 202 199 197 196 195 195 199 206 210 211 214 219 224 225 224 224 228 233 236 238 241 246 250 256 260 263 264 267 270
196 195 194 195 197 198 196 195 198 201 202 204 206 207 206 205 204 204 204 205 210 215 217 219 223 226 228 229 229 230 234 238 239 240 245 249 252 254 257 260 264 267
201 199 198 200 203 204 203 200 202 204 204 207 210 210 210 210 210 211 213 213 217 221 222 224 227 229 230 231 233 234 236 238 241 242 246 250 253 255 257 261 267 271
206 205 204 204 206 209 210 209 210 210 209 210 212 213 213 212 212 214 217 219 223 225 226 227 229 232 233 234 236 237 239 240 244 247 251 256 259 262 265 268 271 274
210 210 209 209 209 211 213 215 217 219 218 216 216 216 216 215 215 217 219 221 224 228 230 230 231 234 236 237 239 241 242 244 247 251 255 259 262 266 270 273 274 275
212 213 213 214 215 214 214 216 220 224 225 223 221 221 221 220 220 221 222 224 225 229 233 235 237 239 241 242 243 244 246 247 250 253 256 259 262 266 269 271 273 276
214 215 216 217 218 218 218 219 221 225 227 226 226 226 226 225 225 226 227 229 229 230 234 238 242 245 247 247 247 248 250 251 252 253 255 257 261 265 267 268 271 274
219 220 220 220 220 220 220 221 223 226 227 228 229 230 231 230 230 231 232 234 234 233 234 237 242 246 248 249 249 250 252 255 257 257 257 258 259 262 265 267 270 273
224 226 227 226 225 224 223 223 225 227 228 229 230 232 233 234 234 235 235 236 236 236 236 237 241 245 248 249 249 250 253 257 261 262 261 261 261 263 265 268 271 273
227 228 230 231 230 229 228 227 227 228 229 230 230 232 234 235 236 236 236 237 237 237 238 239 242 244 247 250 251 252 255 257 260 263 263 264 265 265 267 269 271 274
229 230 230 230 231 232 232 232 232 232 232 232 232 233 235 235 236 237 237 238 238 239 240 241 243 245 246 249 251 252 254 257 259 261 262 264 266 268 269 270 271 274
231 232 231 231 232 233 235 236 238 239 239 238 237 237 238 238 238 238 238 239 240 241 243 245 247 248 248 249 251 252 253 256 258 260 262 264 265 266 268 270 272 275
230 232 233 233 233 234 237 238 240 242 244 244 244 243 243 243 243 243 243 242 243 244 247 249 251 252 253 253 253 253 253 254 255 257 259 261 263 264 266 268 271 273
229 230 232 233 234 234 236 237 238 241 243 245 245 245 245 246 246 247 248 248 248 249 250 253 254 255 256 257 258 258 258 258 258 258 258 258 260 261 264 267 269 271
229 230 232 234 234 234 235 236 237 238 240 241 243 244 244 245 246 248 249 250 251 252 253 254 256 257 257 258 260 262 263 264 266 266 264 262 261 261 261 262 266 270
233 233 234 236 236 235 235 235 236 237 239 240 241 243 244 245 246 247 249 250 251 252 253 254 256 257 259 260 261 262 263 264 265 266 268 268 268 268 265 263 263 267
236 236 237 238 239 240 239 238 238 238 240 240 242 243 244 245 247 248 249 251 253 254 255 256 256 257 259 261 261 262 262 263 263 263 266 268 268 268 269 269 266 266
240 240 240 240 240 241 244 245 244 242 240 241 243 244 246 247 247 249 250 251 253 255 255 256 257 258 259 261 262 263 263 263 263 263 263 264 264 265 267 268 267 266
242 244 245 245 243 240 243 249 251 249 244 241 240 242 246 249 249 250 251 250 250 252 254 256 257 257 258 261 262 264 265 266 266 266 265 264 264 263 264 265 266 266
239 241 245 249 247 241 239 245 252 255 252 247 241 239 241 246 250 251 251 251 250 250 253 256 258 258 260 262 263 264 266 267 268 268 268 267 265 264 264 265 266 267
238 237 239 245 245 241 239 240 246 252 255 254 250 244 240 241 245 248 250 252 253 253 253 255 257 260 261 262 263 264 264 265 267 267 268 267 266 265 264 265 266 268
243 240 238 239 239 238 238 240 242 246 250 252 251 246 241 238 241 246 250 252 254 256 257 257 256 258 260 261 262 262 262 262 262 263 264 264 265 265 266 266 267 268
249 247 244 241 237 235 237 239 242 245 248 252 252 250 248 243 241 245 250 252 254 258 264 264 260 258 258 260 262 262 262 262 261 260 260 260 261 262 264 265 266 268
Height
3233 3234 3235 3236 3237 3238 3239 3240 3241 3242 3243 3244 3245 3246 3246 3247 3248 3249 3249 3250 3251 3251 3252 3253 3253 3254 3255 3255 3256 3257 3257 3258 3258 3259 3259 3259 3260 3260 3260 3260 3261 3261
3232 3233 3234 3235 3236 3238 3239 3240 3241 3242 3243 3244 3244 3245 3246 3247 3247 3248 3249 3249 3250 3251 3251 3252 3253 3254 3254 3255 3256 3256 3257 3257 3257 3258 3258 3259 3259 3259 3259 3259 3260 3260
3232 3233 3234 3235 3236 3237 3238 3240 3241 3242 3243 3243 3244 3245 3245 3246 3247 3248 3249 3249 3250 3250 3251 3252 3252 3253 3253 3254 3255 3255 3256 3256 3257 3257 3257 3258 3258 3258 3258 3259 3259 3259
3231 3232 3233 3234 3235 3236 3237 3239 3240 3241 3242 3243 3244 3244 3245 3246 3247 3247 3248 3249 3249 3250 3251 3251 3252 3252 3253 3253 3254 3254 3255 3255 3256 3256 3256 3257 3257 3257 3257 3257 3257 3258
3230 3231 3233 3234 3235 3236 3237 3238 3239 3240 3241 3242 3243 3244 3244 3245 3246 3247 3247 3248 3249 3249 3250 3251 3251 3251 3252 3252 3253 3253 3254 3255 3255 3255 3256 3256 3256 3256 3256 3256 3256 3256
3230 3231 3232 3233 3234 3235 3236 3237 3238 3239 3240 3241 3241 3242 3243 3244 3245 3246 3246 3247 3248 3249 3249 3250 3250 3251 3251 3252 3252 3253 3253 3254 3254 3255 3255 3255 3255 3255 3255 3255 3255 3255
3229 3230 3231 3232 3233 3234 3235 3236 3237 3238 3239 3239 3240 3241 3242 3243 3244 3245 3245 3246 3247 3248 3248 3249 3249 3250 3250 3251 3251 3252 3252 3253 3253 3253 3254 3254 3254 3254 3254 3254 3254 3254
3229 3229 3230 3231 3232 3233 3234 3235 3236 3237 3238 3238 3239 3240 3241 3242 3242 3243 3244 3245 3246 3246 3247 3248 3248 3249 3249 3250 3250 3251 3251 3251 3252 3252 3252 3253 3253 3253 3253 3253 3253 3253
3227 3228 3229 3230 3231 3232 3233 3234 3235 3236 3237 3237 3238 3239 3240 3240 3241 3242 3243 3243 3244 3245 3246 3246 3247 3248 3248 3249 3249 3250 3250 3250 3250 3251 3251 3251 3251 3251 3252 3252 3252 3252
3226 3227 3228 3229 3230 3232 3232 3233 3234 3235 3235 3236 3237 3238 3239 3239 3240 3241 3241 3242 3243 3244 3244 3245 3246 3246 3247 3247 3248 3248 3248 3249 3249 3249 3250 3250 3250 3250 3250 3250 3251 3251
3225 3226 3227 3228 3229 3230 3231 3232 3233 3234 3234 3235 3236 3237 3238 3238 3239 3240 3240 3241 3242 3242 3243 3244 3244 3245 3245 3246 3246 3247 3247 3247 3247 3248 3248 3248 3248 3249 3249 3249 3249 3250
3224 3225 3226 3227 3228 3229 3230 3231 3232 3232 3233 3234 3235 3236 3237 3237 3238 3238 3239 3240 3240 3241 3241 3242 3242 3243 3243 3244 3244 3245 3245 3245 3246 3246 3247 3247 3247 3247 3247 3248 3248 3248
3223 3224 3225 3226 3227 3228 3229 3229 3230 3231 3232 3233 3233 3234 3235 3236 3237 3237 3238 3238 3239 3239 3239 3240 3240 3241 3241 3242 3242 3243 3243 3244 3244 3244 3245 3245 3245 3246 3246 3246 3246 3246
3221 3223 3223 3225 3225 3226 3227 3228 3229 3230 3230 3231 3232 3233 3233 3234 3235 3236 3236 3237 3237 3238 3238 3238 3239 3239 3239 3240 3241 3241 3241 3242 3242 3242 3243 3243 3244 3244 3244 3244 3244 3244
3220 3221 3222 3223 3224 3225 3226 3226 3227 3228 3229 3230 3230 3231 3232 3232 3233 3234 3235 3235 3236 3236 3237 3237 3238 3238 3238 3238 3239 3239 3239 3240 3240 3240 3241 3241 3241 3242 3242 3242 3242 3242
3218 3219 3220 3221 3222 3223 3224 3225 3226 3226 3227 3228 3229 3230 3230 3231 3232 3232 3233 3234 3235 3235 3235 3236 3236 3237 3237 3237 3237 3238 3238 3238 3238 3238 3238 3238 3239 3239 3240 3240 3240 3239
3216 3217 3218 3219 3220 3221 3222 3223 3223 3224 3225 3226 3227 3228 3228 3229 3230 3231 3231 3232 3233 3233 3234 3234 3235 3235 3236 3236 3236 3236 3236 3236 3236 3235 3235 3235 3236 3236 3237 3237 3237 3237
3213 3214 3215 3216 3217 3218 3219 3220 3221 3221 3222 3223 3224 3225 3226 3227 3227 3228 3229 3230 3230 3231 3232 3232 3233 3233 3234 3234 3234 3235 3235 3235 3235 3234 3234 3233 3233 3234 3233 3233 3233 3234
3211 3212 3213 3214 3214 3215 3216 3217 3218 3219 3220 3221 3222 3222 3223 3224 3225 3226 3226 3227 3228 3228 3229 3229 3230 3230 3231 3231 3232 3232 3232 3232 3232 3233 3232 3232 3232 3232 3231 3229 3229 3230
3208 3209 3210 3210 3212 3213 3213 3214 3215 3216 3217 3218 3219 3220 3221 3222 3222 3223 3224 3224 3225 3226 3226 3226 3226 3227 3228 3229 3229 3229 3229 3229 3230 3230 3230 3230 3230 3229 3228 3227 3226 3227
3205 3206 3207 3207 3209 3210 3211 3212 3213 3214 3214 3215 3216 3217 3218 3219 3220 3220 3221 3221 3222 3223 3223 3223 3224 3225 3226 3226 3226 3227 3226 3226 3227 3227 3227 3227 3227 3226 3226 3225 3225 3225
3203 3203 3204 3205 3206 3207 3208 3210 3211 3211 3212 3212 3212 3214 3215 3216 3217 3218 3218 3218 3219 3219 3220 3220 3221 3222 3222 3223 3223 3224 3224 3224 3224 3224 3224 3224 3224 3224 3223 3223 3223 3222
3198 3200 3201 3202 3204 3204 3204 3206 3207 3209 3209 3210 3210 3210 3211 3213 3214 3214 3215 3215 3216 3216 3216 3217 3218 3218 3219 3220 3220 3221 3221 3221 3220 3220 3220 3220 3220 3220 3220 3220 3220 3220
3193 3195 3197 3199 3200 3201 3201 3201 3203 3205 3207 3208 3208 3207 3207 3208 3209 3211 3211 3212 3213 3213 3213 3213 3214 3215 3216 3216 3217 3217 3218 3217 3217 3217 3217 3217 3217 3217 3217 3217 3216 3217
3190 3190 3192 3195 3196 3197 3198 3199 3200 3201 3202 3204 3204 3205 3205 3204 3204 3207 3208 3209 3210 3210 3210 3210 3211 3211 3212 3213 3213 3214 3214 3213 3214 3213 3214 3214 3214 3213 3213 3213 3213 3213
3187 3186 3188 3191 3192 3193 3194 3196 3196 3197 3199 3200 3201 3203 3204 3202 3202 3203 3205 3205 3206 3207 3208 3207 3207 3208 3208 3208 3209 3209 3210 3209 3209 3209 3209 3210 3210 3210 3209 3209 3209 3209